This is the latest recevied weather packets stored in our database for station/object KD8BMB. If no packets are shown the sender has not sent any weather packets the latest 10 day(s).
| Time | Temp. | Humidity | Pressure | Rain* | Wind** | Luminosity | Snow |
|---|---|---|---|---|---|---|---|
| 1777832008 | 16.67° C | 47% | 1009.5 hPa | 0 mm | - | 676 W/m² | - |
| 1777831704 | 16.67° C | 46% | 1009.6 hPa | 0 mm | - | 676 W/m² | - |
| 1777831403 | 16.67° C | 45% | 1009.7 hPa | 0 mm | - | 741 W/m² | - |
| 1777831099 | 16.67° C | 46% | 1009.6 hPa | 0 mm | - | 498 W/m² | - |
| 1777830797 | 16.11° C | 46% | 1010 hPa | 0 mm | - | 668 W/m² | - |
| 1777830492 | 15.56° C | 49% | 1010 hPa | 0 mm | - | 682 W/m² | - |
| 1777830191 | 15.56° C | 48% | 1009.8 hPa | 0 mm | - | 498 W/m² | - |
| 1777829886 | 15.56° C | 48% | 1010 hPa | 0 mm | - | 283 W/m² | - |
| 1777829582 | 15.56° C | 47% | 1010.1 hPa | 0 mm | - | 333 W/m² | - |
| 1777829279 | 15.56° C | 47% | 1010.1 hPa | 0 mm | - | 312 W/m² | - |
| 1777828976 | 15.56° C | 48% | 1010.2 hPa | 0 mm | - | 420 W/m² | - |
| 1777828673 | 15° C | 47% | 1010.3 hPa | 0 mm | - | 364 W/m² | - |
| 1777828369 | 15° C | 48% | 1010.5 hPa | 0 mm | - | 329 W/m² | - |
| 1777828067 | 15.56° C | 48% | 1010.8 hPa | 0 mm | - | 269 W/m² | - |
| 1777827763 | 15° C | 48% | 1010.7 hPa | 0 mm | - | 319 W/m² | - |
| 1777827460 | 15.56° C | 49% | 1010.6 hPa | 0 mm | - | 374 W/m² | - |
| 1777827158 | 15.56° C | 48% | 1010.6 hPa | 0 mm | - | 475 W/m² | - |
| 1777826853 | 15.56° C | 47% | 1010.7 hPa | 0 mm | - | 448 W/m² | - |
| 1777826552 | 15° C | 48% | 1010.8 hPa | 0 mm | - | 550 W/m² | - |
| 1777826247 | 14.44° C | 49% | 1010.9 hPa | 0 mm | - | 619 W/m² | - |
| 1777825945 | 13.89° C | 49% | 1011 hPa | 0 mm | - | 431 W/m² | - |
| 1777825642 | 14.44° C | 48% | 1010.9 hPa | 0 mm | - | 446 W/m² | - |
| 1777825340 | 14.44° C | 50% | 1011 hPa | 0 mm | - | 439 W/m² | - |
| 1777825037 | 14.44° C | 50% | 1011.1 hPa | 0 mm | - | 537 W/m² | - |
| 1777824732 | 13.89° C | 50% | 1011.4 hPa | 0 mm | - | 519 W/m² | - |
* Rain latest hour (hover to see other rain measurements)
** Current wind speed in m/s (hover to see current wind gust speed)